Weather History for LIRM - March, 2013

Change the Weather History Date:

Friday, March 22, 2013

  Actual Average (LIRN) Record (LIRN)
Temperature  
Mean Temperature 46 °F -  
Max Temperature 59 °F 64 °F 69 °F (2001)
Min Temperature 33 °F 44 °F 33 °F (1998)
Degree Days  
Heating Degree Days 19    
Moisture  
Dew Point 43 °F    
Average Humidity 84    
Maximum Humidity 100    
Minimum Humidity 55    
Precipitation  
Precipitation 0.00 in 0.09 in - ()
Sea Level Pressure  
Sea Level Pressure 29.89 in    
Wind  
Wind Speed 4 mph ()    
Max Wind Speed 10 mph    
Max Gust Speed -    
Visibility 9.4 miles    
Events      
Averages and records for this station are not official NWS values.
T = Trace of Precipitation, MM = Missing Value Source: Averaged Metar Reports

Daily Weather History Graph

Daily Weather History Graph

Search for Another Location

Airport or City:

Trip Planner

Search our weather history database for the weather conditions in past years. The results will help you decide how hot, cold, wet, or windy it might be!

Date:

Astronomy

Mar. 22, 2013 Rise Set
Actual Time 6:03 AM CET 6:17 PM CET
Civil Twilight 5:36 AM CET 6:45 PM CET
Nautical Twilight 5:04 AM CET 7:17 PM CET
Astronomical Twilight 4:31 AM CET 7:50 PM CET
Moon 1:26 PM CET (3/22) 2:55 AM CET (3/22)
Length of Visible Light 13h 09m
Length of Day
12h 14m
Waxing Gibbous, 75% of the Moon is Illuminated
Mar 22
Waxing Gibbous
Mar 27
Full
Apr 3
Last Quarter
Apr 10
New
Apr 18
First Quarter

Hourly Weather History & Observations

Time (CET) Temp. Windchill Dew Point Humidity Pressure Visibility Wind Dir Wind Speed Gust Speed Precip Events Conditions
12:55 AM 41.0 °F 38.0 °F 39.2 °F 93% 29.92 in - ENE 4.6 mph - N/A   Clear
1:00 AM 41 °F - 39 °F 92% 29.93 in 16 mi ENE 4.6 mph - -  
1:55 AM 37.4 °F - 35.6 °F 93% 29.92 in - Calm Calm - N/A   Clear
2:55 AM 35.6 °F 32.8 °F 35.6 °F 100% 29.89 in - NNE 3.5 mph - N/A   Clear
3:55 AM 37.4 °F 32.8 °F 35.6 °F 93% 29.89 in - NE 5.8 mph - N/A   Clear
4:00 AM 37 °F - 35 °F 91% 29.90 in 16 mi NE 5.8 mph - -  
4:55 AM 37.4 °F 33.8 °F 35.6 °F 93% 29.86 in - NE 4.6 mph - N/A   Clear
5:55 AM 35.6 °F - 33.8 °F 93% 29.89 in - NNE 1.2 mph - N/A   Clear
6:55 AM 33.8 °F 30.8 °F 32.0 °F 93% 29.89 in - NNE 3.5 mph - N/A   Clear
7:00 AM 34 °F - 31 °F 85% 29.90 in 16 mi NNE 3.5 mph - -  
8:55 AM 48.2 °F - 42.8 °F 82% 29.89 in - ENE 3.5 mph - N/A   Clear
9:55 AM 55.4 °F - 42.8 °F 63% 29.89 in - SSE 2.3 mph - N/A   Clear
10:00 AM 55 °F - 44 °F 55% 29.91 in 12 mi SSE 2.3 mph - -   Scattered Clouds
10:55 AM 57.2 °F - 42.8 °F 59% 29.89 in 6.2 mi WSW 4.6 mph - N/A   Partly Cloudy
11:55 AM 59.0 °F - 48.2 °F 67% 29.89 in 6.2 mi SW 4.6 mph - N/A   Partly Cloudy
12:55 PM 59.0 °F - 46.4 °F 63% 29.89 in 6.2 mi SW 10.4 mph - N/A   Partly Cloudy
1:00 PM 58 °F - 47 °F 57% 29.89 in 12 mi SW 10.4 mph - -  
3:55 PM 57.2 °F - 51.8 °F 82% 29.86 in 6.2 mi WSW 6.9 mph - N/A   Partly Cloudy
4:00 PM 58 °F - 52 °F 73% 29.88 in 19 mi WSW 6.9 mph - -   Scattered Clouds
4:55 PM 57.2 °F - 51.8 °F 82% 29.86 in 6.2 mi WSW 8.1 mph - N/A   Partly Cloudy
5:55 PM 53.6 °F - 51.8 °F 94% 29.86 in 6.2 mi SW 3.5 mph - N/A   Partly Cloudy
7:00 PM 51 °F - 50 °F 93% 29.89 in 12 mi SSW 2.3 mph - -  
7:55 PM 50.0 °F - 48.2 °F 94% 29.89 in 6.2 mi SSE 2.3 mph - N/A   Partly Cloudy
9:55 PM 46.4 °F 45.2 °F 46.4 °F 100% 29.89 in - East 3.5 mph - N/A   Clear
10:00 PM 47 °F - 46 °F 94% 29.90 in 6 mi East 3.5 mph - -  
10:55 PM 44.6 °F 43.1 °F 44.6 °F 100% 29.89 in 4.3 mi North 3.5 mph - N/A   Unknown
11:55 PM 44.6 °F 43.1 °F 42.8 °F 93% 29.89 in 3.1 mi North 3.5 mph - N/A   Mist